Weather History for Seattle Boeing, WA

Change the Weather History Date:

Tuesday, January 7, 2014

  Actual Average Record
Temperature  
Mean Temperature 44 °F -  
Max Temperature 48 °F 44 °F 62 °F (2002)
Min Temperature 41 °F 33 °F 19 °F (1973)
Degree Days  
Heating Degree Days 20    
Moisture  
Dew Point 41 °F    
Average Humidity 87    
Maximum Humidity 93    
Minimum Humidity 81    
Precipitation  
Precipitation 0.34 in - - ()
Sea Level Pressure  
Sea Level Pressure 30.05 in    
Wind  
Wind Speed 4 mph (SE)    
Max Wind Speed 14 mph    
Max Gust Speed -    
Visibility 6 miles    
Events Rain    
Averages and records for this station are not official NWS values.
T = Trace of Precipitation, MM = Missing Value Source: NWS Daily Summary

Daily Weather History Graph

Daily Weather History Graph

Search for Another Location

Airport:

Trip Planner

Search our weather history database for the weather conditions in past years. The results will help you decide how hot, cold, wet, or windy it might be!

Date:

Astronomy

Jan. 07, 2014 Rise Set
Actual Time 7:56 AM PST 4:35 PM PST
Civil Twilight 7:20 AM PST 5:10 PM PST
Nautical Twilight 6:42 AM PST 5:49 PM PST
Astronomical Twilight 6:04 AM PST 6:26 PM PST
Moon 11:15 AM PST (1/7) No Moon Set
Length of Visible Light 9h 49m
Length of Day
8h 39m
Waxing Crescent, 46% of the Moon is Illuminated
Jan 7
Waxing Crescent
Jan 7
First Quarter
Jan 15
Full
Jan 23
Last Quarter
Jan 30
New

Hourly Weather History & Observations

Time (PST) Temp. Windchill Dew Point Humidity Pressure Visibility Wind Dir Wind Speed Gust Speed Precip Events Conditions
12:36 AM 41.0 °F 38.0 °F 35.6 °F 81% 30.14 in 7.0 mi SE 4.6 mph - 0.04 in Rain Light Rain
12:53 AM 41.0 °F 38.0 °F 36.0 °F 82% 30.14 in 9.0 mi SE 4.6 mph - 0.05 in Rain Light Rain
1:53 AM 41.0 °F 39.0 °F 37.9 °F 89% 30.13 in 8.0 mi SSE 3.5 mph - 0.07 in Rain Light Rain
2:53 AM 42.1 °F - 39.0 °F 89% 30.13 in 10.0 mi Calm Calm - 0.02 in Rain Light Rain
3:50 AM 42.8 °F - 39.2 °F 87% 30.11 in 10.0 mi Calm Calm - 0.01 in   Overcast
3:53 AM 42.1 °F - 39.0 °F 89% 30.11 in 10.0 mi Calm Calm - 0.01 in   Overcast
4:30 AM 42.8 °F - 39.2 °F 87% 30.10 in 10.0 mi Calm Calm - N/A   Overcast
4:53 AM 42.1 °F - 39.0 °F 89% 30.09 in 10.0 mi Calm Calm - N/A   Overcast
5:53 AM 43.0 °F - 39.9 °F 89% 30.07 in 10.0 mi Calm Calm - N/A   Overcast
6:53 AM 43.0 °F - 39.9 °F 89% 30.05 in 5.0 mi Calm Calm - N/A   Overcast
7:53 AM 43.0 °F 41.3 °F 39.9 °F 89% 30.04 in 5.0 mi SE 3.5 mph - 0.01 in   Overcast
8:28 AM 42.8 °F - 39.2 °F 87% 30.06 in 1.5 mi Calm Calm - 0.00 in   Overcast
8:53 AM 43.0 °F - 39.9 °F 89% 30.06 in 1.2 mi Calm Calm - 0.03 in Rain Light Rain
9:46 AM 44.6 °F 39.2 °F 41.0 °F 87% 30.05 in 3.0 mi ESE 10.4 mph - 0.02 in   Overcast
9:53 AM 45.0 °F 40.6 °F 41.0 °F 86% 30.05 in 3.0 mi SE 8.1 mph - 0.02 in   Overcast
10:00 AM 44.6 °F 41.4 °F 41.0 °F 87% 30.06 in 4.0 mi SSE 5.8 mph - N/A   Overcast
10:29 AM 44.6 °F 38.1 °F 41.0 °F 87% 30.05 in 4.0 mi SSE 13.8 mph - N/A   Overcast
10:53 AM 45.0 °F 41.8 °F 41.0 °F 86% 30.04 in 6.0 mi South 5.8 mph - N/A   Overcast
11:53 AM 46.9 °F - 42.1 °F 83% 30.04 in 6.0 mi Calm Calm - N/A   Haze
12:53 PM 46.9 °F - 43.0 °F 86% 30.02 in 10.0 mi SE 8.1 mph - 0.00 in   Overcast
1:53 PM 48.0 °F - 43.0 °F 83% 30.01 in 10.0 mi SE 6.9 mph - N/A   Overcast
2:53 PM 48.0 °F - 43.0 °F 83% 30.00 in 10.0 mi SE 5.8 mph - 0.00 in   Overcast
3:53 PM 48.0 °F - 43.0 °F 83% 30.01 in 4.0 mi SSE 5.8 mph - 0.01 in Rain Light Rain
4:53 PM 46.9 °F - 43.0 °F 86% 30.01 in 6.0 mi SE 4.6 mph - 0.04 in Rain Light Rain
5:00 PM 46.4 °F 44.3 °F 42.8 °F 87% 30.01 in 6.0 mi SE 4.6 mph - 0.00 in Rain Light Rain
5:53 PM 46.9 °F - 43.0 °F 86% 30.01 in 10.0 mi Calm Calm - 0.03 in Rain Light Rain
6:00 PM 46.4 °F - 42.8 °F 87% 30.01 in 9.0 mi Calm Calm - 0.00 in Rain Light Rain
6:53 PM 46.9 °F - 43.0 °F 86% 30.00 in 6.0 mi SSE 4.6 mph - 0.02 in Rain Light Rain
7:42 PM 46.4 °F 45.2 °F 44.6 °F 93% 30.01 in 3.0 mi SSE 3.5 mph - 0.02 in Rain Light Rain
7:53 PM 46.9 °F - 44.1 °F 90% 30.01 in 3.0 mi South 4.6 mph - 0.02 in Rain Light Rain
8:24 PM 46.4 °F 43.5 °F 42.8 °F 87% 30.01 in 6.0 mi SE 5.8 mph - 0.01 in   Overcast
8:53 PM 46.9 °F - 43.0 °F 86% 30.01 in 10.0 mi SSE 3.5 mph - 0.01 in   Overcast
9:53 PM 46.9 °F - 44.1 °F 90% 30.02 in 6.0 mi SE 6.9 mph - N/A   Overcast
10:53 PM 46.9 °F - 44.1 °F 90% 30.03 in 3.0 mi SE 6.9 mph - N/A   Overcast
11:33 PM 46.4 °F 42.4 °F 44.6 °F 93% 30.02 in 5.0 mi SE 8.1 mph - N/A   Overcast
11:53 PM 46.9 °F - 44.1 °F 90% 30.02 in 4.0 mi SE 5.8 mph - N/A   Overcast
11:58 PM 46.4 °F 42.9 °F 44.6 °F 93% 30.02 in 5.0 mi SE 6.9 mph - N/A   Overcast